Location: Munkebjergskolens Observatorium
(55.3864°N, 10.3987°E)
Time: 01:50:05
(UTC+01:00)

ISS - Visible Passes

Search period start: 25 January 2026 00:00
Search period end: 04 February 2026 00:00
Orbit: 413 x 423 km, 51.6° (Epoch: 23 January)

Date Brightness Start Highest point End Pass type
(mag) Time Alt. Az. Time Alt. Az. Time Alt. Az.
25 Jan -1.9 18:42:57 10° W 18:45:49 26° SSW 18:47:34 17° SSE visible
26 Jan -2.2 17:54:50 10° W 17:57:52 32° SSW 18:00:53 10° SE visible
26 Jan -0.9 19:32:30 10° WSW 19:33:55 12° SW 19:34:44 11° SSW visible
27 Jan -1.1 18:43:51 10° WSW 18:46:02 16° SSW 18:48:14 10° S visible
28 Jan -1.3 17:55:28 10° WSW 17:58:05 21° SSW 18:00:41 10° SSE visible
30 Jan -0.6 17:56:32 10° WSW 17:58:03 13° SW 17:59:33 10° S visible
